GFSFLT2_925_temp_000.txt.gz
Temp
19 18 18 18 18 17 17 17 17 17 18 18 18 18 18 18 18 18 18 17 17 17 17 17 16 16 15 15 15 15 18 19
18 19 18 18 18 17 18 17 17 17 17 17 17 17 16 16 17 17 17 17 17 17 16 16 16 16 15 15 15 15 16 18
17 18 17 17 18 17 18 17 17 17 17 17 16 16 15 14 14 14 15 16 16 16 16 15 16 15 15 14 14 15 16 18
17 16 17 17 17 17 17 17 17 17 16 16 15 17 17 17 16 14 13 12 14 15 15 15 15 16 15 15 14 14 15 15
16 15 15 17 17 17 17 15 15 15 15 15 15 15 14 15 15 16 14 14 13 12 13 14 14 15 15 16 16 15 15 14
16 15 15 15 17 17 17 16 15 15 14 14 14 13 13 13 14 12 12 12 13 13 12 13 13 14 14 14 15 14 14 14
16 15 15 15 15 15 15 15 15 14 14 14 15 14 13 12 14 14 13 13 14 13 13 12 13 13 14 14 13 12 13 13
15 15 15 15 15 14 14 14 14 14 14 13 13 14 13 13 12 12 12 12 13 14 13 13 13 13 13 13 13 14 12 11
16 15 15 15 15 15 15 14 14 14 13 12 12 13 12 12 12 12 11 11 12 12 13 13 13 13 13 14 13 13 12 12
15 15 15 15 14 15 15 14 14 14 13 13 12 12 12 12 12 11 11 11 11 11 11 12 12 12 12 12 13 13 13 12
15 14 14 14 14 14 13 13 14 13 13 13 12 12 12 12 12 11 11 11 11 11 10 11 11 10 11 13 12 12 13 12
15 14 13 13 13 13 13 13 13 13 13 13 12 12 12 12 12 11 11 11 11 11 11 11 11 11 10 11 12 13 13 13
15 14 13 13 13 14 14 14 13 13 13 12 12 12 12 12 12 12 12 11 11 11 11 11 12 11 12 12 12 12 13 12
15 15 14 14 14 14 14 14 14 14 13 12 12 12 12 12 12 12 12 12 11 11 11 11 11 11 10 11 13 15 13 12
15 15 15 14 14 13 13 13 12 13 13 13 12 11 11 11 11 11 11 11 11 11 11 11 11 11 10 11 12 12 10 12
14 15 14 14 13 14 13 14 15 14 13 13 12 11 11 11 10 10 10 10 10 10 11 10 10 11 11 11 10 10 11 12
14 14 14 14 13 12 13 13 13 13 12 11 11 11 10 10 10 10 9 9 10 9 9 10 10 10 10 11 11 10 10 10
13 13 14 13 12 12 11 12 12 12 11 11 11 10 10 10 9 8 8 8 8 8 9 9 9 9 9 10 10 10 11 11
13 13 13 13 11 11 10 10 10 10 10 10 9 9 9 8 8 7 7 7 7 7 7 8 8 8 9 9 9 9 9 9
14 13 13 13 11 10 9 8 9 9 7 8 7 7 6 6 6 6 6 6 6 6 6 7 7 8 8 8 9 9 9 9

GFSFLT2_925_temp_003.txt.gz
Temp
21 21 19 18 18 18 18 17 17 17 17 17 17 17 18 17 17 17 16 15 15 16 16 16 16 16 16 16 16 16 17 18
22 22 21 20 20 18 18 18 18 17 17 17 17 17 17 18 17 17 17 16 15 15 15 16 16 16 16 16 16 16 16 18
20 21 20 20 20 20 19 18 18 18 17 17 17 17 15 16 18 17 16 15 15 14 14 14 15 15 15 15 15 17 18 17
20 18 19 19 20 20 19 18 18 18 18 17 17 16 16 16 14 16 16 17 16 16 14 14 13 15 15 15 15 18 17 18
19 18 18 19 19 20 19 17 17 17 17 17 15 15 14 15 14 14 14 15 13 13 14 14 13 13 14 14 16 16 16 17
19 17 17 18 20 20 19 18 18 18 17 16 16 15 14 14 14 13 13 13 13 14 13 12 12 12 14 13 14 14 14 14
19 18 17 17 18 18 17 17 17 16 17 16 16 16 15 15 14 14 13 13 12 12 12 13 12 13 12 12 13 13 13 13
19 18 18 18 18 17 16 16 16 16 16 15 15 15 15 15 14 14 13 12 12 13 12 13 13 14 14 13 13 13 14 14
19 18 18 18 17 17 17 16 16 16 15 14 14 14 13 14 14 14 13 12 11 12 12 12 12 13 13 14 14 14 14 14
19 19 18 18 18 17 18 17 16 16 15 14 13 13 13 14 14 13 12 13 12 11 11 11 12 12 12 12 13 14 14 14
19 18 18 17 17 17 16 15 16 16 15 15 13 13 13 14 14 13 12 13 12 12 12 12 12 13 12 11 12 13 14 14
18 18 17 16 16 16 16 16 16 15 15 15 14 14 13 14 14 13 13 13 13 12 12 12 12 12 12 12 13 12 13 13
18 17 17 16 16 16 16 16 16 16 15 14 14 14 13 13 14 14 13 13 12 12 12 12 12 12 12 13 13 14 13 14
18 18 17 16 17 17 17 17 16 16 16 14 13 13 13 13 13 13 13 13 13 12 12 12 12 13 12 12 13 14 15 13
18 18 18 17 16 17 16 15 15 15 15 14 14 13 13 13 13 13 12 12 12 12 12 12 12 12 12 13 12 13 13 13
18 18 18 17 16 16 16 16 16 17 17 16 15 14 13 13 13 12 12 12 12 11 12 11 11 11 12 12 12 12 12 11
17 17 17 17 16 15 15 15 15 15 15 14 13 13 13 12 12 12 11 11 11 11 11 11 11 11 11 11 12 12 12 13
17 17 17 16 16 15 14 14 14 14 14 13 12 12 12 12 11 10 10 10 10 10 10 10 10 10 10 10 11 11 12 12
17 17 16 16 16 15 14 13 13 12 12 11 11 10 10 10 9 9 8 8 8 8 8 8 8 8 9 9 10 10 11 11
18 18 17 16 16 15 13 12 11 11 11 9 9 9 9 8 7 7 7 7 7 7 7 7 7 8 8 8 9 10 10 11

GFSFLT2_925_temp_006.txt.gz
Temp
22 20 20 19 19 19 18 18 18 18 18 18 18 18 17 18 18 18 18 17 16 15 15 16 16 17 17 17 16 17 17 18
22 23 21 20 19 19 19 18 18 18 17 17 17 17 16 16 16 16 16 16 16 16 15 15 15 15 16 17 17 17 17 18
21 21 21 20 21 20 19 18 18 18 18 17 17 17 16 15 15 15 16 16 16 16 15 14 14 14 14 15 16 17 17 17
21 19 19 19 21 21 19 19 18 18 18 17 18 17 16 16 15 15 15 16 16 16 16 16 15 15 15 13 14 15 17 18
20 19 18 19 20 20 19 18 18 18 17 17 17 16 15 15 15 14 14 14 15 15 14 15 15 14 15 15 14 14 16 17
20 18 18 19 20 20 19 19 18 18 17 17 17 16 16 15 14 14 14 13 12 12 13 13 13 14 15 13 14 15 15 15
20 18 18 18 19 18 18 18 18 17 17 16 17 17 15 15 15 14 14 13 13 14 14 14 13 13 14 14 14 13 13 15
20 19 18 18 18 17 17 17 16 16 16 15 15 15 15 15 15 14 14 13 12 13 12 13 13 13 12 13 13 14 14 13
20 19 18 18 18 17 17 16 17 16 15 14 14 15 14 14 14 14 14 12 12 12 11 12 12 13 13 13 13 13 13 13
20 20 19 18 18 17 17 17 16 16 15 14 14 14 14 14 14 14 13 13 13 12 12 12 12 12 12 12 12 13 13 14
20 19 19 18 18 18 18 17 16 16 15 15 14 13 13 14 14 13 13 13 13 12 12 12 12 12 12 13 12 12 13 13
20 19 18 18 18 17 17 16 16 16 16 15 14 14 13 14 14 13 13 13 13 12 12 12 12 12 12 12 12 12 13 13
19 19 18 17 17 16 16 16 16 16 16 16 15 14 14 13 14 14 14 13 13 13 12 12 12 12 12 12 12 12 12 13
19 18 18 17 17 17 17 17 17 16 16 16 14 14 14 14 13 13 13 13 12 12 12 12 12 12 11 11 9 11 13 12
19 19 18 18 17 17 17 17 16 16 16 15 14 14 14 13 13 13 13 12 12 12 12 12 11 11 11 11 9 9 10 12
19 19 19 18 18 17 16 17 15 15 15 15 15 15 13 13 13 13 12 12 12 12 11 11 11 10 11 11 11 11 9 9
19 18 18 18 18 17 16 16 16 16 15 15 15 14 13 13 12 12 12 11 11 10 10 10 10 10 10 10 10 10 10 9
19 18 18 17 17 17 17 15 15 14 14 13 13 13 12 12 11 10 10 9 9 9 9 9 9 9 8 8 9 9 9 9
19 18 17 17 17 17 16 15 14 13 13 12 12 11 10 10 9 8 8 8 8 8 8 7 7 7 7 7 8 8 8 9
20 19 19 18 17 17 16 15 14 13 12 12 10 9 9 9 8 8 7 7 7 7 6 6 6 7 7 7 7 7 8 8

GFSFLT2_925_temp_012.txt.gz
Temp
19 19 19 19 20 20 20 19 18 18 18 17 17 17 17 17 17 17 17 17 17 18 17 16 15 16 16 16 16 16 16 16
19 19 18 19 19 19 19 19 18 18 18 18 17 17 17 17 17 17 17 17 16 16 16 15 16 16 15 16 16 17 16 15
19 19 18 18 19 18 18 19 19 18 18 17 17 16 16 16 16 16 16 16 16 16 15 15 15 15 15 16 16 16 16 16
20 20 19 18 18 18 18 18 18 18 17 17 17 16 16 16 15 15 14 14 15 15 15 15 15 14 14 15 15 15 15 15
20 20 19 18 19 18 18 18 18 17 17 17 17 16 15 15 15 14 14 14 14 14 14 14 14 14 14 14 14 14 15 15
20 20 19 18 18 18 17 17 17 16 16 16 16 16 15 15 14 14 13 13 13 13 13 13 13 13 13 13 13 13 14 14
20 20 19 18 18 18 18 17 17 17 16 16 16 16 15 15 15 14 14 13 13 13 12 11 11 12 12 12 12 12 12 13
21 20 20 18 18 18 18 17 17 17 17 16 16 15 15 15 14 14 14 13 13 13 13 12 12 12 12 12 12 12 12 12
21 20 19 19 18 18 17 17 17 17 16 16 16 15 15 14 14 14 13 13 13 13 13 12 12 12 12 13 12 12 12 12
20 20 19 19 18 17 17 17 17 17 17 16 16 15 15 14 14 14 13 13 13 12 13 12 12 12 12 12 12 12 12 12
20 19 19 18 18 18 17 17 17 16 16 16 16 15 14 14 14 13 13 13 13 12 12 12 12 12 12 12 12 12 12 12
20 19 19 19 18 18 17 17 17 16 16 16 15 15 15 14 14 13 13 13 13 12 12 12 12 11 11 11 11 11 12 12
20 20 19 19 18 17 17 17 16 16 16 16 15 15 15 14 14 13 13 13 13 12 12 12 11 11 11 11 11 11 11 11
20 20 20 19 18 18 18 17 17 17 16 16 15 15 15 15 14 14 13 13 12 12 12 11 11 11 10 8 6 9 10 10
21 21 20 20 19 18 18 17 16 16 16 16 16 15 14 14 14 14 13 13 13 12 12 11 10 10 10 9 6 5 7 9
20 20 20 19 18 18 17 17 16 17 17 16 16 16 15 14 14 13 13 12 12 11 10 9 9 8 8 9 8 7 5 6
21 20 20 19 18 18 17 16 17 17 17 16 16 15 15 14 13 12 12 11 10 9 9 8 7 7 7 7 7 7 7 5
19 19 19 18 18 18 17 17 16 15 16 15 15 14 14 14 12 11 10 9 9 8 7 6 5 6 7 6 5 5 5 5
17 17 17 17 16 16 16 16 16 15 15 14 13 11 11 10 9 8 7 5 5 5 5 6 6 6 6 6 6 5 5 5
16 16 15 15 15 16 16 15 15 15 15 14 12 11 9 7 6 6 5 4 4 3 3 4 4 5 6 5 5 5 5 4

GFSFLT2_925_temp_015.txt.gz
Temp
20 20 20 20 20 20 19 19 19 18 18 18 18 18 18 18 17 17 17 17 16 16 16 16 16 16 15 16 16 16 16 17
20 19 19 19 19 19 18 18 18 18 17 17 17 17 17 16 16 16 16 16 16 15 15 15 15 15 16 15 15 15 15 16
19 19 19 19 19 18 18 18 18 18 17 16 16 16 16 16 15 15 15 15 15 15 15 15 15 15 15 15 15 15 14 15
18 19 18 18 18 18 18 18 17 17 17 17 16 15 15 15 15 15 15 15 15 14 14 14 14 15 14 14 15 15 14 14
19 19 18 18 18 18 18 17 17 17 17 17 16 16 15 15 15 15 15 14 14 14 14 14 14 14 14 14 14 14 14 14
19 19 18 18 18 18 18 17 17 17 17 16 16 16 15 15 14 14 14 14 14 14 14 13 13 13 13 13 13 13 13 13
20 19 19 19 19 18 17 17 17 16 16 16 16 16 16 15 14 14 14 14 13 13 13 13 12 12 12 13 12 12 12 12
20 20 20 19 18 18 17 17 17 16 16 16 16 16 15 15 14 14 13 13 13 13 13 13 13 12 12 12 12 12 12 12
20 20 20 19 18 18 17 17 17 16 16 16 16 16 15 15 14 14 13 13 13 13 13 13 13 12 12 12 12 12 12 12
20 20 19 19 19 18 18 17 17 17 16 16 16 16 15 14 14 14 13 13 13 13 13 12 12 12 12 12 12 12 12 12
20 19 19 19 18 18 18 17 17 17 16 16 16 16 15 15 14 14 13 13 13 13 13 12 12 12 12 12 12 12 12 11
20 20 19 19 18 18 18 17 17 17 17 16 16 15 15 15 15 14 13 13 13 13 12 12 12 12 11 11 12 12 11 11
20 20 20 19 18 17 17 17 17 17 17 17 17 16 15 14 15 14 13 13 13 13 12 12 12 11 10 11 11 11 11 11
20 20 19 19 19 19 18 18 18 17 17 17 16 16 16 15 14 14 14 13 13 13 12 12 11 11 10 8 6 8 10 10
20 20 20 19 19 18 18 17 17 17 17 17 17 16 16 15 15 14 14 14 13 13 12 11 11 10 9 9 5 5 5 9
20 20 20 19 18 17 17 16 15 17 18 17 17 16 16 15 15 14 14 13 13 12 11 10 10 8 8 8 8 7 4 3
20 19 18 17 17 16 16 15 16 15 15 15 15 15 14 15 15 14 12 12 11 10 9 8 7 7 6 6 6 6 5 3
17 17 17 17 16 15 15 14 15 14 14 14 14 13 13 13 13 11 11 10 8 6 5 5 5 4 4 4 4 4 4 4
16 15 15 15 15 15 15 14 14 13 14 14 13 12 11 10 9 8 7 5 4 3 3 3 3 3 3 3 2 2 3 4
15 15 14 14 13 13 13 13 13 13 13 13 12 9 8 6 5 4 3 3 4 4 4 4 3 2 2 4 4 4 4 4

GFSFLT2_925_temp_018.txt.gz
Temp
20 20 20 19 20 19 19 18 18 18 17 17 17 17 17 16 16 16 16 16 16 16 16 15 14 14 15 15 15 15 15 15
20 19 19 19 19 19 19 18 17 17 17 17 17 17 16 16 16 16 16 15 15 15 15 15 15 15 14 15 15 15 15 15
19 19 19 19 19 18 18 18 18 17 17 17 17 16 16 16 16 16 15 15 15 15 15 15 15 15 14 14 14 14 14 15
19 19 19 18 18 18 18 18 18 17 17 17 16 16 16 16 15 15 15 15 15 15 15 15 15 15 15 14 14 14 14 14
19 19 19 19 18 18 18 18 17 17 17 16 16 16 15 15 15 15 14 14 14 14 14 14 14 14 14 14 14 14 13 13
20 20 20 19 18 18 18 18 17 17 17 16 16 16 15 15 15 15 14 14 14 14 14 13 13 13 13 13 13 13 13 13
20 20 20 19 18 18 18 18 17 17 16 16 16 16 16 15 15 15 14 14 14 13 13 13 13 13 13 13 12 12 12 12
20 20 18 18 19 19 18 17 17 17 16 16 16 16 16 15 15 15 14 14 13 13 13 13 13 13 13 13 13 12 12 12
20 19 18 18 19 18 18 17 17 17 16 16 16 16 16 15 15 14 14 13 13 13 13 13 13 13 13 12 13 13 12 12
20 19 19 19 19 18 18 17 17 17 16 16 16 16 16 15 15 15 14 13 13 13 13 13 13 12 12 12 12 12 12 12
20 19 19 19 19 18 18 17 17 17 17 16 16 16 15 15 15 15 14 14 13 13 13 13 12 12 12 12 12 12 11 11
19 19 19 19 19 18 18 17 17 17 17 17 17 16 15 15 15 15 14 14 13 13 13 13 12 12 12 11 11 11 11 11
20 20 20 19 19 18 18 18 18 18 18 18 17 17 16 15 15 14 14 14 14 14 13 12 12 12 11 11 11 11 11 11
20 20 20 20 19 18 17 17 17 17 18 18 17 17 17 16 15 14 14 14 14 13 13 12 12 11 10 7 6 8 10 10
21 20 19 17 17 16 16 16 16 16 17 17 17 16 15 16 16 15 15 14 13 14 13 12 11 11 10 10 4 5 4 9
18 17 17 16 15 15 14 14 13 15 14 15 15 15 15 14 13 13 14 12 12 12 12 11 10 9 7 8 7 7 4 5
16 15 14 14 14 14 14 13 13 12 13 13 13 14 13 13 12 11 11 10 10 10 9 9 8 8 7 5 5 5 6 4
15 15 15 15 15 14 12 12 12 12 12 12 12 12 12 12 11 10 9 8 8 7 7 6 5 5 4 4 3 3 2 2
15 14 14 13 13 12 12 12 11 11 12 12 11 11 11 10 9 7 6 5 4 4 4 3 3 3 2 2 2 1 0 -0
13 13 12 12 12 11 11 11 10 11 11 10 10 10 8 6 5 4 4 3 3 3 2 3 2 2 1 0 -0 0 0 0

GFSFLT2_925_temp_021.txt.gz
Temp
19 19 19 19 19 19 19 19 19 18 18 17 17 17 17 17 17 16 16 16 16 16 16 16 15 15 15 15 15 15 15 15
19 19 19 19 19 19 19 18 18 18 17 17 17 17 17 16 16 16 16 15 16 15 15 15 15 15 15 15 15 15 14 14
19 19 19 19 19 18 18 18 18 18 17 17 17 17 17 16 16 16 16 15 15 15 15 15 15 14 14 14 14 15 15 14
19 19 19 18 18 18 18 18 18 17 17 17 16 16 16 16 15 15 15 15 15 15 15 15 15 15 14 14 14 14 13 13
20 19 19 19 18 18 18 18 17 17 17 17 16 16 16 15 15 15 15 14 14 14 14 14 14 14 14 14 14 14 13 12
19 19 19 20 19 18 18 17 17 17 17 17 16 16 16 15 15 15 15 14 14 14 14 14 13 14 14 14 14 13 12 12
19 19 20 19 19 19 18 17 17 17 17 17 16 16 16 16 15 15 15 14 14 14 14 14 14 13 13 13 13 13 13 12
19 20 20 19 19 18 18 18 17 17 17 16 16 16 16 16 15 15 15 14 14 14 13 13 13 13 13 13 13 12 13 13
19 20 20 20 19 18 18 17 17 17 17 16 16 16 16 15 15 15 15 15 14 13 13 13 13 13 13 13 12 12 12 12
19 20 20 19 18 18 18 17 17 17 17 16 16 16 16 16 15 15 15 14 13 13 13 13 13 13 12 12 12 12 12 12
19 20 19 19 18 18 18 18 18 17 17 17 17 17 16 16 16 16 15 15 14 13 13 13 12 12 12 12 12 12 12 11
19 19 20 19 18 18 18 18 18 18 18 18 17 16 16 16 16 16 15 14 14 14 13 12 12 12 12 12 11 11 12 11
20 20 20 18 17 16 17 17 17 17 17 17 16 16 16 15 14 14 14 13 14 14 13 11 11 11 10 11 11 10 10 10
18 16 16 16 15 15 15 15 16 16 16 16 16 15 15 14 14 14 13 11 12 12 11 11 10 10 12 12 13 13 10 9
15 15 15 15 14 14 15 15 14 14 14 14 15 14 14 14 13 12 12 11 10 11 10 10 12 11 10 13 13 13 13 9
15 14 14 14 14 14 13 12 12 12 11 11 12 13 13 13 13 12 11 10 9 9 10 9 10 11 9 9 9 10 12 13
14 14 14 14 13 13 11 10 10 10 10 10 10 11 12 12 12 12 11 9 8 8 8 7 8 8 10 10 7 8 7 10
14 14 14 12 12 11 11 11 10 10 10 10 10 10 10 11 11 10 9 8 7 5 5 5 5 6 5 5 6 8 8 7
12 13 11 11 12 13 12 11 10 9 9 9 9 8 8 8 8 7 5 4 3 4 3 3 3 3 2 2 1 1 1 0
11 11 12 13 12 11 11 10 9 8 8 8 7 6 6 6 5 4 3 4 3 3 3 2 2 1 1 0 0 -0 -0 -0

GFSFLT2_925_temp_024.txt.gz
Temp
20 19 19 19 19 19 19 18 18 18 18 18 18 18 17 17 17 16 16 16 16 16 16 16 15 15 15 15 16 16 17 18
21 20 20 19 18 19 18 18 18 18 17 17 17 17 16 16 16 16 16 15 15 15 15 15 15 15 15 15 15 16 17 18
20 21 19 19 19 18 18 18 18 18 17 17 17 18 17 17 16 15 15 15 15 15 15 15 15 15 15 15 15 17 17 17
21 20 19 19 19 19 18 18 19 18 18 17 18 17 17 17 16 16 15 15 15 15 15 15 15 16 16 15 17 16 16 17
21 20 19 19 20 20 20 19 19 18 17 17 17 17 17 17 17 17 16 16 16 15 15 16 15 15 16 15 16 15 17 17
21 20 19 18 20 20 20 19 19 19 18 17 17 18 17 17 17 17 16 17 16 16 16 15 14 14 14 15 15 15 16 16
22 20 19 19 18 19 19 18 19 18 18 17 17 17 17 17 17 16 16 16 16 16 16 15 15 14 14 14 15 15 14 15
22 20 19 19 19 18 19 18 18 18 18 18 16 16 17 17 17 17 17 16 16 16 16 15 15 15 14 14 14 15 15 14
21 20 19 19 19 18 18 19 18 18 18 17 16 16 16 16 16 17 17 16 15 15 15 15 15 15 14 14 14 14 14 14
21 20 19 19 19 18 18 18 18 18 18 17 16 16 15 15 16 16 16 16 16 16 15 16 15 15 15 15 15 14 14 13
21 20 20 20 19 18 17 17 17 18 17 17 17 16 15 15 16 16 16 16 16 15 16 15 15 16 16 15 15 15 14 14
20 20 19 18 18 17 18 18 18 17 18 17 16 16 15 15 15 15 15 15 15 16 15 15 15 15 16 16 15 15 14 14
19 19 18 17 18 18 19 19 18 18 17 16 15 15 14 14 15 15 15 15 15 15 15 15 15 15 14 15 15 15 14 14
18 17 17 17 17 16 16 16 16 16 16 16 15 14 14 14 14 14 14 14 14 14 14 14 14 14 15 15 16 17 15 14
17 16 16 15 15 16 16 17 17 17 16 15 14 13 13 13 13 13 13 13 13 13 13 13 14 14 14 14 16 16 17 16
16 16 16 15 14 15 15 15 15 14 14 14 13 13 12 12 12 12 12 12 12 12 13 12 13 13 14 14 13 14 16 15
15 16 15 14 14 13 14 14 14 14 13 13 12 13 12 12 11 10 10 11 11 10 10 10 11 11 12 12 12 12 12 12
15 15 15 13 13 12 12 11 12 12 12 12 12 12 12 12 11 9 9 8 8 8 8 8 8 8 8 8 8 8 8 10
15 15 15 14 13 13 12 12 12 12 11 11 10 10 10 10 8 8 8 7 6 6 5 4 3 3 2 2 1 1 1 1
14 14 14 14 13 13 12 11 11 11 10 9 9 9 9 8 7 6 6 6 5 4 4 3 2 1 1 1 0 0 0 0

GFSFLT2_925_temp_027.txt.gz
Temp
22 20 19 19 19 18 18 18 18 18 18 17 18 18 17 17 17 17 16 17 17 16 16 16 16 16 16 16 17 17 18 21
23 22 22 21 18 19 19 18 18 18 18 18 18 18 17 17 16 17 17 17 16 16 16 16 16 16 16 16 16 17 18 20
23 23 22 21 22 19 19 19 19 18 18 18 18 19 19 18 17 16 16 16 15 15 15 15 15 16 16 16 17 18 19 20
23 22 22 21 22 21 21 20 21 20 20 19 20 19 19 18 17 17 16 16 16 16 16 16 16 18 18 17 17 19 18 19
24 22 21 21 22 22 22 22 21 21 20 19 20 19 20 19 19 18 17 17 18 17 17 17 18 17 18 18 18 18 18 19
24 22 21 21 22 23 22 22 22 21 21 19 19 20 20 19 19 19 19 19 18 18 18 18 16 16 16 16 17 17 18 19
24 23 21 22 21 22 21 21 21 20 20 20 19 19 19 19 18 18 18 18 18 18 18 18 17 17 17 16 16 17 17 17
25 23 22 21 21 21 21 20 21 20 20 20 18 18 18 18 18 18 18 19 18 18 18 17 17 17 17 16 16 16 17 17
25 23 22 21 21 21 21 21 20 20 20 19 18 18 18 17 18 18 18 18 18 17 17 17 17 17 17 17 16 15 15 16
25 24 22 21 22 21 21 21 20 20 20 19 18 18 17 17 18 18 18 17 17 17 17 17 17 18 17 17 17 17 16 15
25 24 22 22 22 21 20 20 19 20 20 20 19 18 17 17 17 17 17 17 17 17 17 17 17 17 17 18 17 17 17 16
23 23 22 21 21 20 20 20 20 20 20 19 18 17 17 16 16 16 16 17 17 17 17 17 17 17 17 17 17 17 17 16
22 22 20 20 21 21 21 21 20 20 19 18 17 17 16 16 16 16 16 16 16 16 16 16 16 16 16 17 17 16 16 16
20 20 19 19 20 19 18 18 18 18 18 17 17 16 15 15 15 15 15 15 15 15 15 15 15 15 15 15 16 17 17 17
19 18 18 17 18 19 18 19 19 19 18 17 16 15 14 14 14 14 13 13 14 14 14 14 15 15 15 15 15 16 18 18
18 18 18 17 16 17 17 17 17 17 16 15 15 14 14 14 14 13 13 12 12 12 13 13 13 14 14 14 15 14 13 14
17 18 17 16 16 15 15 15 15 15 15 15 14 14 13 13 13 12 12 11 11 11 11 11 11 11 12 11 10 10 11 10
17 17 18 17 16 15 15 14 14 14 14 13 13 12 12 12 12 11 10 10 10 10 8 7 6 7 7 6 5 5 7 5
17 17 17 17 16 15 15 14 13 14 13 13 11 11 11 11 10 9 9 9 7 6 6 5 4 3 2 2 2 1 1 1
17 17 17 16 16 15 14 13 13 12 12 11 10 10 9 9 9 7 6 5 4 4 4 3 2 2 2 1 1 1 1 1

GFSFLT2_925_temp_030.txt.gz
Temp
20 20 20 20 20 19 19 19 19 18 18 18 18 18 18 18 17 17 17 17 17 17 16 16 16 16 17 17 17 18 19 19
22 21 21 20 20 20 19 19 19 19 18 18 18 18 18 18 17 17 17 17 17 16 16 16 16 17 17 17 18 18 19 19
24 22 22 21 21 20 19 19 19 19 19 19 18 18 18 17 18 18 18 17 18 17 17 17 17 17 17 18 18 18 18 19
23 22 22 22 22 21 20 20 20 19 19 20 19 19 19 19 19 18 18 18 18 17 17 17 17 17 17 17 18 18 18 19
23 22 22 22 22 22 22 21 21 20 20 19 20 20 19 19 19 18 18 18 18 17 18 18 17 17 17 17 17 17 17 18
23 22 21 21 22 22 22 22 21 21 20 20 19 19 19 19 19 18 18 18 18 18 18 18 18 17 16 16 16 16 17 17
24 23 22 22 22 21 21 21 21 20 20 20 19 19 19 18 18 18 18 18 19 19 18 18 18 18 17 17 17 16 16 17
24 23 22 22 22 21 21 21 21 20 20 19 19 18 18 18 18 18 18 18 18 18 18 17 17 17 17 17 17 16 16 16
25 24 22 22 21 21 21 21 20 21 20 19 19 18 18 18 18 18 18 18 18 17 18 17 17 17 17 17 17 17 16 16
25 24 23 22 22 21 21 21 20 20 20 20 19 18 17 17 17 17 17 17 17 17 17 17 17 17 17 17 17 17 17 16
25 24 23 22 22 21 21 20 20 20 20 20 19 18 17 17 16 16 16 16 16 17 17 17 17 17 17 17 17 17 17 17
23 23 23 22 21 21 20 21 20 20 20 19 18 17 17 16 16 16 16 16 16 16 16 16 16 16 16 16 16 16 17 17
21 20 19 20 21 20 20 19 19 19 19 18 17 17 16 15 15 15 15 15 15 15 15 15 15 15 15 15 15 15 16 16
20 19 19 19 19 19 19 18 19 18 18 18 17 17 16 15 15 14 14 14 13 13 13 14 14 14 14 14 13 14 15 15
19 19 18 17 18 18 18 18 18 18 17 17 16 15 15 14 14 14 13 13 12 12 12 12 12 12 13 13 12 12 13 14
19 18 18 17 16 16 16 16 16 15 16 15 15 14 14 13 13 12 12 11 11 11 11 10 10 10 10 10 9 9 9 9
18 18 18 17 16 16 15 15 14 14 14 14 13 13 12 12 11 11 11 10 10 10 9 8 7 7 6 5 6 6 7 7
18 18 18 18 17 16 15 15 14 14 14 13 12 11 11 10 10 10 9 8 7 7 7 6 5 5 5 5 3 3 3 3
18 17 17 17 16 16 15 14 13 13 12 12 11 10 10 9 9 8 7 7 6 6 6 5 4 4 2 2 2 1 1 1
17 17 16 16 15 15 13 13 12 12 12 10 10 9 9 7 7 6 6 5 5 5 4 4 3 3 2 2 2 2 2 1

GFSFLT2_925_temp_033.txt.gz
Temp
21 20 21 20 20 20 19 19 19 19 19 19 19 18 18 18 18 19 18 18 18 18 18 18 18 17 17 18 18 19 18 17
21 21 21 20 21 20 20 19 19 19 19 19 18 18 18 19 19 18 18 18 18 18 18 18 18 17 17 18 18 18 18 18
22 21 21 20 20 20 20 19 19 19 19 19 18 18 18 19 19 18 18 18 17 17 17 17 17 17 17 17 17 18 17 18
22 21 21 21 21 21 20 20 20 19 19 19 19 19 19 19 18 18 18 18 17 17 18 18 17 17 17 17 17 17 17 17
22 22 22 21 21 21 21 20 20 20 19 19 19 19 19 18 18 18 18 18 18 18 18 18 18 17 17 17 17 17 17 17
22 22 21 21 22 21 20 20 20 19 19 19 19 19 19 19 18 18 18 18 18 18 18 18 17 17 17 17 17 16 17 16
22 23 22 22 21 21 21 21 21 20 20 19 19 19 18 18 18 18 18 18 18 18 18 18 18 18 17 17 17 17 17 17
22 23 22 22 21 21 21 21 21 20 20 20 19 18 18 18 18 18 18 18 18 18 17 17 17 17 17 17 17 17 17 17
23 23 22 22 21 21 21 20 21 20 20 20 19 18 18 17 17 17 17 17 17 17 17 17 17 17 17 17 17 17 17 17
23 22 21 20 21 21 21 20 20 20 20 20 19 18 18 17 17 17 17 17 17 17 17 16 16 17 17 17 17 17 17 17
22 22 20 20 18 20 21 21 20 20 20 19 18 17 17 17 17 17 16 16 16 16 15 15 15 15 15 15 16 16 16 16
20 19 19 19 20 20 20 19 19 19 18 18 18 17 17 16 16 15 15 15 14 14 14 14 13 14 14 14 14 15 15 15
19 19 18 19 19 19 19 19 19 19 18 18 17 17 16 15 15 14 14 14 13 13 13 12 12 12 12 12 13 13 14 14
18 19 18 18 18 18 18 18 18 18 16 16 16 15 14 14 13 13 13 12 12 12 11 11 11 10 10 10 10 11 12 12
18 18 18 18 17 17 18 18 17 16 15 14 14 14 13 12 12 12 11 11 11 10 10 10 9 8 8 7 7 7 8 10
18 18 18 17 17 16 16 15 15 14 14 14 13 13 12 11 10 10 10 10 10 9 8 8 8 6 7 7 6 4 6 6
18 18 17 17 16 16 15 15 14 14 13 13 12 11 11 10 10 10 9 8 7 7 7 6 6 6 4 4 4 4 4 2
17 17 17 16 15 15 14 14 13 13 12 11 11 10 9 9 9 8 7 7 7 6 6 5 5 4 4 4 2 3 3 2
17 16 16 15 15 14 13 12 12 12 11 10 10 9 8 8 7 7 6 6 5 5 5 5 4 4 3 2 1 2 2 1
17 16 16 14 13 13 12 12 11 11 10 10 9 9 8 7 7 6 5 4 4 4 4 3 3 2 2 2 2 1 2 1

GFSFLT2_925_temp_036.txt.gz
Temp
20 21 21 20 20 20 20 19 19 19 19 19 19 19 19 19 19 19 19 18 18 18 18 18 18 18 18 18 17 17 17 17
21 21 21 21 21 20 20 20 19 19 19 19 19 19 19 19 18 18 18 18 18 18 17 17 17 17 17 17 17 17 17 17
20 21 21 21 20 20 20 19 19 19 19 19 19 19 19 18 18 18 18 17 17 17 17 17 17 17 17 17 17 17 17 17
21 21 21 21 20 20 19 19 19 19 19 18 18 19 19 18 18 18 17 17 17 17 17 17 17 17 17 17 17 17 17 17
21 21 21 20 20 20 20 20 19 19 19 19 19 18 18 18 17 18 18 18 18 18 18 17 17 17 17 17 17 17 17 17
21 21 20 21 20 20 20 20 19 19 19 19 18 18 18 18 18 18 18 18 18 18 18 17 17 17 17 17 17 17 16 16
21 21 21 21 21 21 20 20 20 19 19 19 19 19 18 18 18 18 18 18 18 17 17 17 17 17 17 17 17 17 17 17
22 22 22 22 21 21 21 20 20 19 19 19 19 19 18 18 18 17 17 17 17 17 17 17 17 17 17 17 17 17 17 17
23 22 22 22 21 21 21 20 20 20 20 19 19 19 18 18 17 17 17 17 17 16 16 16 15 15 15 15 16 16 16 16
20 21 21 21 21 20 21 20 20 20 20 19 19 18 18 17 17 17 16 16 16 15 15 15 14 14 14 14 14 14 15 15
20 20 20 19 20 20 20 20 19 19 19 18 18 17 17 17 16 15 15 15 15 14 14 13 13 13 12 13 13 13 14 14
17 17 17 17 17 18 18 18 19 18 18 17 17 17 16 15 15 14 14 14 14 13 12 12 12 11 11 12 12 13 13 13
16 16 16 16 16 17 17 17 16 16 15 15 15 14 14 14 13 13 13 12 11 11 11 11 11 10 10 10 10 11 11 11
17 17 17 17 17 16 16 16 15 15 14 14 14 14 13 12 12 12 11 11 11 10 10 9 9 8 8 8 7 9 9 9
17 17 17 17 17 17 17 17 16 15 13 13 12 12 12 12 11 11 10 10 10 9 8 8 7 8 7 7 5 5 6 8
17 17 16 16 16 15 15 15 14 14 13 12 12 11 11 11 10 10 9 8 8 7 7 7 6 6 6 5 5 5 3 5
17 17 16 16 15 15 14 14 13 13 12 12 12 11 11 10 10 9 8 7 7 6 6 5 5 5 4 3 3 3 4 2
16 16 16 15 15 15 14 13 12 12 11 11 10 10 9 9 8 7 7 6 5 4 4 4 3 3 3 2 1 2 2 2
17 16 15 14 14 13 12 12 11 11 11 10 10 9 8 7 6 6 6 5 4 4 4 3 3 3 2 2 2 2 2 1
16 15 13 13 12 12 11 11 11 10 10 9 8 7 6 6 6 5 5 4 4 4 3 3 3 3 3 2 2 1 1 1

GFSFLT2_925_temp_042.txt.gz
Temp
19 19 20 19 19 19 19 19 18 18 19 19 19 18 18 18 18 18 17 18 17 17 17 17 17 17 17 17 17 17 17 17
20 20 20 20 19 19 19 18 18 19 19 18 18 18 18 18 17 18 18 17 17 17 17 17 17 17 17 17 17 16 17 17
20 20 20 20 19 19 19 19 19 19 18 18 18 18 18 17 17 17 17 17 17 17 17 17 17 17 17 17 17 16 16 16
20 20 20 20 19 19 19 19 19 19 18 18 18 18 17 17 17 17 17 17 17 17 17 17 17 17 17 17 17 17 17 16
20 20 20 20 20 20 19 19 18 18 18 18 18 18 18 18 17 17 17 17 17 17 17 16 16 16 16 16 16 16 16 16
20 19 19 20 20 19 19 19 19 18 18 18 18 18 18 18 18 17 17 17 17 17 16 16 16 15 15 15 15 15 15 16
20 19 19 19 19 19 19 19 18 18 18 18 18 18 18 18 17 17 16 16 16 16 16 16 15 15 15 15 15 15 15 15
20 19 18 18 18 18 18 18 18 18 18 18 18 18 17 17 16 16 16 16 15 15 15 15 14 14 14 14 14 14 14 13
19 19 18 17 17 17 18 17 18 18 18 17 17 16 16 16 16 15 15 15 14 14 14 14 14 14 14 14 13 13 13 13
18 18 17 17 17 17 17 17 17 17 17 16 16 15 15 15 15 15 14 14 14 14 13 13 12 12 12 12 12 13 12 12
17 16 16 16 17 16 14 15 16 16 16 16 15 15 15 15 14 14 13 13 12 12 12 11 11 11 11 11 11 12 11 10
15 15 16 15 14 13 14 15 15 16 16 15 15 15 15 14 14 13 12 12 11 11 10 10 9 8 9 9 9 10 9 8
15 15 15 15 13 14 15 15 15 16 16 15 15 14 14 13 13 12 11 11 10 9 9 8 8 7 7 7 8 8 8 8
15 16 16 15 16 15 16 16 15 15 15 15 14 13 13 12 11 11 10 10 9 8 7 7 6 6 6 6 4 6 6 7
16 16 17 17 17 16 15 15 15 15 14 13 12 12 11 10 10 9 9 8 8 7 7 6 5 5 5 5 3 3 3 6
17 17 17 17 16 16 16 15 15 14 12 11 11 10 10 9 9 8 8 7 7 7 6 6 4 4 4 4 4 3 2 3
16 16 16 16 15 15 15 14 13 11 11 10 10 9 9 8 8 7 7 6 6 5 5 4 4 3 3 2 2 1 2 2
15 15 14 14 14 13 13 12 12 11 11 10 9 9 8 8 7 7 6 5 5 4 4 4 3 3 2 1 1 1 2 2
13 14 13 12 12 12 11 11 11 11 10 10 10 9 9 8 7 7 6 5 5 4 4 4 3 3 2 2 2 1 1 1
14 12 12 11 11 11 11 11 11 10 10 9 9 8 8 8 7 7 6 5 4 4 3 3 3 3 3 2 2 2 2 1

GFSFLT2_925_temp_045.txt.gz
Temp
18 18 18 19 19 18 18 18 18 19 18 18 18 18 18 18 17 17 17 17 17 17 17 17 16 17 17 16 16 17 16 16
18 19 19 18 18 18 18 18 18 18 18 18 18 18 18 18 17 17 17 17 17 17 17 17 17 17 16 16 16 16 16 16
19 19 18 18 18 18 18 18 18 18 18 18 18 18 17 17 17 17 17 17 17 17 17 17 17 17 17 17 17 16 16 16
19 19 18 19 19 18 18 18 18 18 18 18 18 18 17 17 17 17 17 17 17 17 17 17 17 17 17 17 16 16 16 16
18 18 19 19 18 18 18 18 18 18 18 18 18 17 17 17 17 17 17 17 17 17 17 16 16 16 16 16 16 16 16 15
19 18 18 18 18 17 17 18 18 18 18 18 17 17 17 17 16 16 16 16 16 16 16 16 16 15 15 15 15 15 14 14
19 18 18 18 17 17 17 17 18 17 17 17 17 16 16 16 16 16 16 16 16 15 15 15 15 14 14 14 14 14 14 13
18 18 18 17 17 17 17 17 17 17 16 16 15 15 15 16 16 15 15 15 14 14 14 14 14 14 13 13 13 13 12 13
18 17 17 17 17 17 16 16 16 16 16 16 15 15 15 15 15 14 14 14 14 14 13 13 13 12 13 12 12 12 11 11
17 16 16 17 17 16 17 15 15 16 15 15 14 14 15 14 14 14 13 13 13 12 12 12 11 11 11 11 11 11 10 9
15 15 15 15 16 15 15 14 14 16 15 15 15 15 14 14 14 13 13 12 12 11 10 10 10 10 10 10 10 10 10 9
14 14 14 15 16 15 16 14 15 15 15 15 15 14 14 13 13 12 11 11 10 10 9 9 8 8 8 9 9 10 8 8
15 16 14 15 15 14 13 14 14 15 15 15 15 14 13 12 12 11 10 10 9 8 8 7 8 7 8 9 9 8 7 7
14 14 14 15 15 13 15 14 14 15 14 14 13 12 12 11 11 10 10 8 8 7 6 7 7 6 7 8 10 10 8 7
15 16 16 16 15 15 15 14 13 12 12 13 12 11 11 11 10 9 9 8 7 7 6 5 6 6 5 6 9 9 7 7
16 16 15 15 15 15 15 14 14 13 12 11 11 11 10 9 9 9 8 8 7 6 5 5 4 6 5 4 4 4 5 5
15 15 15 14 14 14 14 13 12 11 11 10 10 10 9 9 8 8 8 7 6 6 5 4 4 4 4 3 3 3 3 4
14 14 14 14 14 14 13 12 11 10 10 9 9 9 9 9 8 8 7 7 5 4 4 3 3 3 3 3 3 4 4 3
13 14 13 12 12 12 12 11 11 11 10 9 9 9 9 9 8 7 6 5 5 4 3 3 3 3 3 3 2 2 2 2
13 12 12 12 12 11 11 11 10 10 10 9 9 9 8 8 7 6 6 5 5 4 3 3 2 2 2 2 2 2 1 1

GFSFLT2_925_temp_048.txt.gz
Temp
19 18 17 18 18 18 18 18 18 18 18 18 18 18 18 17 17 17 17 17 17 16 16 16 16 17 17 17 17 17 19 19
20 19 18 18 17 18 18 18 18 18 18 18 18 18 18 17 17 17 17 16 16 17 16 17 17 17 17 17 17 18 19 19
19 19 18 18 18 17 17 18 18 18 17 18 17 18 17 17 17 17 17 17 17 17 17 17 17 17 17 17 18 18 18 19
18 18 18 18 18 17 17 17 18 18 18 17 18 17 18 18 17 17 17 17 17 17 17 17 17 18 18 18 18 17 18 18
18 17 17 17 17 18 18 18 18 17 17 17 17 17 17 18 17 18 17 17 18 17 17 18 16 17 17 17 17 17 18 18
18 17 17 17 18 18 18 18 18 18 18 16 17 17 17 17 17 17 17 17 17 17 17 16 16 15 15 16 16 16 17 16
19 17 17 17 17 17 17 17 18 17 18 17 17 17 16 16 16 17 17 16 17 16 16 16 16 15 15 15 15 15 15 15
18 18 17 17 17 17 17 17 17 17 16 16 15 15 16 15 15 16 16 15 15 15 15 15 15 15 15 14 14 14 14 14
18 18 17 17 17 16 16 15 15 16 16 16 15 14 13 13 14 15 14 13 14 14 14 14 14 14 14 14 14 14 14 13
18 16 16 15 15 15 14 14 14 14 14 14 15 14 14 13 13 13 12 13 13 13 13 13 14 14 14 14 14 14 14 13
17 15 14 13 14 13 14 15 14 15 14 14 14 14 14 14 13 12 12 13 12 12 12 12 12 12 13 13 13 13 13 13
16 15 14 15 14 14 14 13 14 14 13 13 13 13 13 13 13 12 12 12 12 11 11 11 11 11 11 12 12 12 12 12
15 14 15 15 15 14 13 14 14 14 15 13 13 13 12 12 13 12 11 11 10 10 10 10 11 10 10 12 12 12 11 11
16 15 15 15 15 16 16 16 16 15 14 12 12 12 11 11 11 11 10 11 10 9 9 9 10 10 9 9 13 13 13 11
17 17 16 16 17 16 15 14 15 15 14 13 11 11 11 10 10 10 10 10 10 9 9 8 9 9 9 8 10 11 10 10
18 17 17 16 16 16 16 17 17 15 14 13 12 10 10 10 10 10 9 9 9 9 8 7 8 8 8 8 8 7 7 8
16 16 16 15 15 15 15 15 14 14 13 12 11 11 10 10 9 9 9 9 8 7 7 7 7 7 7 7 7 7 7 6
15 15 15 14 14 14 14 14 13 13 13 12 12 11 11 10 9 9 9 8 8 7 7 6 6 6 6 6 5 4 4 4
15 16 15 14 13 13 13 12 12 12 12 12 11 11 11 11 10 9 9 8 7 6 6 6 5 5 5 5 4 4 4 4
16 15 14 13 13 12 12 12 12 12 11 11 11 10 10 9 8 8 7 7 6 6 5 5 5 5 4 4 4 4 3 3